CAL066 RJGG-OBBI

Flight info

Callsign CAL066
Flight time 3h 51m
Altitude 36000
Route HIKNE Y207 ARASI Y20 KAMMY Y204 DGC Y28 ISAKY Y592 ONIKU A593 LAMEN/K0919F360 A593 AKARA/K0919S1100 A593 PUD A599 NXD W131 AKDIM A470 DUBGO W134 ELNEX A599 GYA/K0911S1160 A599 LINSO/N0490F380 A599 CTG B465 CEA A791 JJS/N0491F400 A791 BPL L639 RASKI L301 RAGMA N571 MENSA/N0494F340 N571 IVOXI P699 ORMID Y856 ALKAN/N0401F180 Y856 SOLOB/N0391F160 Y856 ORDIG
Aircraft A359/H-SDE1E2E3FGHIJ1J2J3J4J5M1P2RWY/LB1D1

Departure

Time 2026-04-29 02:20
Airport Chubu Centrair International Airport (RJGG)

Arrival

Time 2026-04-29 06:11
Airport Bahrain International Airport (OBBI)
Time Latitude Longitude Altitude Speed Heading
2026-04-29 01:58 34.85682 136.81378 30 ft 0 kts 79°
2026-04-29 02:07 34.85680 136.81360 30 ft 3 kts 79°
2026-04-29 02:07 34.85677 136.81344 30 ft 3 kts 57°
2026-04-29 02:07 34.85666 136.81324 29 ft 3 kts 59°
2026-04-29 02:08 34.85655 136.81302 28 ft 3 kts 58°
2026-04-29 02:08 34.85644 136.81282 28 ft 3 kts 51°
2026-04-29 02:08 34.85638 136.81273 28 ft 0 kts 48°
2026-04-29 02:10 34.85639 136.81274 28 ft 0 kts 48°
2026-04-29 02:10 34.85640 136.81275 28 ft 2 kts 46°
2026-04-29 02:11 34.85653 136.81281 28 ft 1 kts 17°
2026-04-29 02:11 34.85655 136.81281 27 ft 0 kts 10°
2026-04-29 02:12 34.85658 136.81282 27 ft 2 kts
2026-04-29 02:12 34.85679 136.81266 30 ft 5 kts 309°
2026-04-29 02:12 34.85690 136.81217 30 ft 6 kts 275°
2026-04-29 02:13 34.85682 136.81163 30 ft 7 kts 255°
2026-04-29 02:13 34.85668 136.81104 30 ft 8 kts 254°
2026-04-29 02:13 34.85655 136.81041 30 ft 8 kts 257°
2026-04-29 02:13 34.85633 136.80979 30 ft 8 kts 224°
2026-04-29 02:14 34.85581 136.80962 30 ft 8 kts 180°
2026-04-29 02:14 34.85522 136.80971 30 ft 9 kts 170°
2026-04-29 02:14 34.85457 136.80989 30 ft 10 kts 167°
2026-04-29 02:14 34.85387 136.81006 30 ft 10 kts 171°
2026-04-29 02:15 34.85313 136.81020 30 ft 11 kts 171°
2026-04-29 02:15 34.85232 136.81036 30 ft 12 kts 169°
2026-04-29 02:15 34.85149 136.81059 30 ft 13 kts 167°
2026-04-29 02:15 34.85060 136.81083 30 ft 13 kts 168°
2026-04-29 02:16 34.84967 136.81104 30 ft 14 kts 169°
2026-04-29 02:16 34.84867 136.81127 30 ft 15 kts 169°
2026-04-29 02:16 34.84761 136.81152 30 ft 16 kts 169°
2026-04-29 02:16 34.84651 136.81181 30 ft 16 kts 168°
2026-04-29 02:17 34.84538 136.81207 30 ft 17 kts 169°
2026-04-29 02:17 34.84434 136.81231 30 ft 14 kts 169°
2026-04-29 02:17 34.84368 136.81200 30 ft 9 kts 229°
2026-04-29 02:17 34.84343 136.81129 30 ft 9 kts 256°
2026-04-29 02:18 34.84330 136.81048 29 ft 10 kts 259°
2026-04-29 02:18 34.84317 136.80957 28 ft 11 kts 265°
2026-04-29 02:18 34.84352 136.80895 29 ft 7 kts 336°
2026-04-29 02:18 34.84364 136.80891 29 ft 0 kts 346°
2026-04-29 02:19 34.84453 136.80868 30 ft 39 kts 349°
2026-04-29 02:19 34.84905 136.80760 33 ft 92 kts 349°
2026-04-29 02:19 34.85695 136.80567 28 ft 138 kts 349°
2026-04-29 02:19 34.86648 136.80349 549 ft 130 kts 347°
2026-04-29 02:20 34.87582 136.80156 925 ft 147 kts 345°
2026-04-29 02:20 34.88617 136.79808 1258 ft 163 kts 340°
2026-04-29 02:20 34.89756 136.79290 1396 ft 187 kts 337°
2026-04-29 02:20 34.91028 136.78618 1515 ft 214 kts 336°
2026-04-29 02:21 34.92485 136.77878 1707 ft 239 kts 339°
2026-04-29 02:21 34.94122 136.77152 1974 ft 261 kts 341°
2026-04-29 02:21 34.95859 136.76454 2673 ft 260 kts 338°
2026-04-29 02:21 34.97322 136.75269 3599 ft 251 kts 311°
2026-04-29 02:22 34.98077 136.73396 4385 ft 248 kts 281°
2026-04-29 02:22 34.98048 136.71295 5087 ft 249 kts 264°
2026-04-29 02:22 34.97757 136.69213 5780 ft 249 kts 262°
2026-04-29 02:22 34.97449 136.67146 6554 ft 246 kts 262°
2026-04-29 02:23 34.97154 136.65099 7307 ft 244 kts 262°
2026-04-29 02:23 34.97071 136.63078 8083 ft 241 kts 276°
2026-04-29 02:23 34.99642 136.57537 10295 ft 253 kts 300°
2026-04-29 02:23 35.04369 136.49788 11343 ft 316 kts 300°
2026-04-29 02:24 35.09802 136.40854 13054 ft 338 kts 300°
2026-04-29 02:24 35.15483 136.31452 15128 ft 348 kts 299°
2026-04-29 02:24 35.21291 136.21801 17091 ft 355 kts 298°
2026-04-29 02:25 35.23215 136.15751 18118 ft 342 kts 271°
2026-04-29 02:25 35.23133 136.12854 18557 ft 341 kts 263°
2026-04-29 02:25 35.22812 136.09973 18926 ft 344 kts 260°
2026-04-29 02:25 35.22383 136.07085 19294 ft 346 kts 258°
2026-04-29 02:26 35.21911 136.04187 19676 ft 349 kts 258°
2026-04-29 02:26 35.21435 136.01280 20066 ft 351 kts 258°
2026-04-29 02:26 35.20965 135.98337 20466 ft 353 kts 259°
2026-04-29 02:26 35.20508 135.95384 20849 ft 355 kts 259°
2026-04-29 02:27 35.20059 135.92407 21226 ft 357 kts 259°
2026-04-29 02:27 35.19614 135.89404 21543 ft 360 kts 259°
2026-04-29 02:27 35.19167 135.86377 21923 ft 363 kts 259°
2026-04-29 02:27 35.18717 135.83337 22312 ft 364 kts 259°
2026-04-29 02:28 35.18264 135.80284 22665 ft 366 kts 259°
2026-04-29 02:28 35.17805 135.77217 23000 ft 368 kts 259°
2026-04-29 02:28 35.17308 135.74134 23369 ft 371 kts 258°
2026-04-29 02:28 35.16783 135.71047 23675 ft 373 kts 258°
2026-04-29 02:29 35.16241 135.67927 23960 ft 376 kts 258°
2026-04-29 02:29 35.14109 135.55506 25214 ft 385 kts 258°
2026-04-29 02:29 35.11927 135.42635 26598 ft 392 kts 258°
2026-04-29 02:29 35.09671 135.29450 27934 ft 400 kts 258°
2026-04-29 02:30 35.07358 135.16042 29229 ft 408 kts 258°
2026-04-29 02:30 35.04984 135.02367 30286 ft 416 kts 258°
2026-04-29 02:30 35.02566 134.88494 31302 ft 418 kts 258°
2026-04-29 02:30 35.00142 134.74733 32589 ft 412 kts 259°
2026-04-29 02:31 34.97159 134.61292 33782 ft 409 kts 255°
2026-04-29 02:31 34.93727 134.48105 34737 ft 406 kts 255°
2026-04-29 02:31 34.90319 134.35060 35661 ft 401 kts 255°
2026-04-29 02:31 34.86924 134.22096 36081 ft 406 kts 256°
2026-04-29 02:32 34.83486 134.09052 36083 ft 404 kts 255°
2026-04-29 02:32 34.76579 133.83015 36078 ft 404 kts 255°
2026-04-29 02:33 34.69607 133.57002 36078 ft 405 kts 255°
2026-04-29 02:33 34.62605 133.31111 36103 ft 406 kts 255°
2026-04-29 02:34 34.55502 133.05103 36102 ft 404 kts 255°
2026-04-29 02:34 34.48368 132.79224 36101 ft 404 kts 255°
2026-04-29 02:35 34.41198 132.53440 36103 ft 403 kts 254°
2026-04-29 02:35 34.33966 132.27678 36111 ft 405 kts 254°
2026-04-29 02:36 34.26687 132.01989 36104 ft 402 kts 254°
2026-04-29 02:36 34.19367 131.76377 36103 ft 403 kts 253°
2026-04-29 02:37 34.11978 131.50747 36103 ft 405 kts 253°
2026-04-29 02:37 34.03832 131.25368 36103 ft 408 kts 247°
2026-04-29 02:38 33.93637 131.00882 36099 ft 409 kts 246°
2026-04-29 02:38 33.88525 130.88608 36423 ft 417 kts 243°
2026-04-29 02:38 33.83220 130.75947 36004 ft 442 kts 243°
2026-04-29 02:38 33.77570 130.62513 36004 ft 458 kts 243°
2026-04-29 02:39 33.71701 130.48605 35999 ft 475 kts 243°
2026-04-29 02:39 33.64951 130.34718 35998 ft 490 kts 233°
2026-04-29 02:39 33.56707 130.21693 36002 ft 491 kts 232°
2026-04-29 02:40 33.40092 129.95647 36003 ft 491 kts 232°
2026-04-29 02:40 33.23458 129.69715 36002 ft 491 kts 232°
2026-04-29 02:40 33.17202 129.55499 36000 ft 491 kts 248°
2026-04-29 02:41 33.12075 129.40339 35998 ft 491 kts 248°
2026-04-29 02:41 33.01687 129.10162 35999 ft 491 kts 247°
2026-04-29 02:42 32.91224 128.80086 36001 ft 491 kts 247°
2026-04-29 02:42 32.80705 128.50129 36001 ft 491 kts 247°
2026-04-29 02:43 32.70094 128.20172 36001 ft 491 kts 247°
2026-04-29 02:43 32.59424 127.90337 36000 ft 491 kts 247°
2026-04-29 02:44 32.48680 127.60556 36002 ft 491 kts 246°
2026-04-29 02:44 32.37866 127.30845 35998 ft 491 kts 246°
2026-04-29 02:45 32.27438 127.01227 36001 ft 491 kts 254°
2026-04-29 02:45 32.20509 126.69991 35998 ft 491 kts 255°
2026-04-29 02:46 32.13713 126.38724 36000 ft 491 kts 255°
2026-04-29 02:46 32.06877 126.07517 35998 ft 491 kts 255°
2026-04-29 02:47 32.00145 125.76287 36000 ft 491 kts 255°
2026-04-29 02:47 31.93205 125.45153 36000 ft 491 kts 255°
2026-04-29 02:48 31.86195 125.14052 36002 ft 491 kts 255°
2026-04-29 02:48 31.79293 124.82945 36001 ft 491 kts 256°
2026-04-29 02:49 31.72516 124.51840 36001 ft 491 kts 255°
2026-04-29 02:49 31.65641 124.20766 35998 ft 491 kts 255°
2026-04-29 02:50 31.58744 123.89730 35999 ft 491 kts 255°
2026-04-29 02:50 31.51925 123.58676 36001 ft 491 kts 255°
2026-04-29 02:51 31.45715 123.27493 35997 ft 492 kts 257°
2026-04-29 02:51 31.39727 122.96258 35998 ft 492 kts 257°
2026-04-29 02:52 31.33708 122.65073 36000 ft 492 kts 257°
2026-04-29 02:52 31.27757 122.33863 36001 ft 492 kts 257°
2026-04-29 02:53 31.21847 122.02682 35999 ft 491 kts 257°
2026-04-29 02:53 31.16403 121.71398 36001 ft 492 kts 262°
2026-04-29 02:54 31.12954 121.39736 35995 ft 492 kts 262°
2026-04-29 02:54 31.05813 121.08996 36000 ft 491 kts 254°
2026-04-29 02:55 30.98356 120.78323 36002 ft 491 kts 253°
2026-04-29 02:55 30.90558 120.47836 36002 ft 491 kts 245°
2026-04-29 02:55 30.85212 120.39459 35997 ft 490 kts 220°
2026-04-29 02:56 30.70360 120.27074 35999 ft 491 kts 215°
2026-04-29 02:56 30.51781 120.11900 36000 ft 491 kts 215°
2026-04-29 02:57 30.28599 119.95204 36002 ft 491 kts 210°
2026-04-29 02:57 30.00883 119.76828 36000 ft 491 kts 210°
2026-04-29 02:58 29.81339 119.63488 35998 ft 491 kts 214°
2026-04-29 02:58 29.59642 119.44545 36001 ft 491 kts 227°
2026-04-29 02:59 29.41336 119.21221 36001 ft 491 kts 228°
2026-04-29 02:59 29.22978 118.98038 35994 ft 491 kts 227°
2026-04-29 03:00 29.04585 118.74962 35993 ft 491 kts 227°
2026-04-29 03:00 28.86118 118.51928 36001 ft 491 kts 227°
2026-04-29 03:01 28.67625 118.28989 36000 ft 491 kts 227°
2026-04-29 03:01 28.49099 118.06140 36000 ft 491 kts 227°
2026-04-29 03:02 28.30330 117.83589 36002 ft 491 kts 226°
2026-04-29 03:02 28.11361 117.61290 36002 ft 491 kts 226°
2026-04-29 03:03 27.92378 117.39074 36001 ft 491 kts 226°
2026-04-29 03:03 27.73343 117.16918 36003 ft 491 kts 226°
2026-04-29 03:04 27.54276 116.94843 35997 ft 491 kts 226°
2026-04-29 03:04 27.35307 116.72695 35998 ft 491 kts 226°
2026-04-29 03:05 27.16382 116.50560 36001 ft 491 kts 227°
2026-04-29 03:05 26.97845 116.28040 35999 ft 491 kts 227°
2026-04-29 03:06 26.79297 116.05547 36001 ft 491 kts 227°
2026-04-29 03:06 26.60770 115.83088 36001 ft 491 kts 227°
2026-04-29 03:07 26.42210 115.60711 36001 ft 491 kts 227°
2026-04-29 03:07 26.23619 115.38409 36002 ft 491 kts 227°
2026-04-29 03:08 26.04973 115.16155 35999 ft 491 kts 227°
2026-04-29 03:08 25.86307 114.93988 36000 ft 491 kts 227°
2026-04-29 03:09 25.65628 114.74582 36003 ft 491 kts 217°
2026-04-29 03:09 25.43897 114.56238 35998 ft 491 kts 217°
2026-04-29 03:10 25.22133 114.37929 36003 ft 491 kts 217°
2026-04-29 03:10 24.98095 114.24733 36000 ft 491 kts 191°
2026-04-29 03:11 24.71202 114.19005 36000 ft 491 kts 191°
2026-04-29 03:11 24.44367 114.13192 36000 ft 492 kts 191°
2026-04-29 03:11 24.31400 114.08781 36004 ft 490 kts 209°
2026-04-29 03:12 24.19745 114.00968 36001 ft 491 kts 213°
2026-04-29 03:12 23.96854 113.84942 36001 ft 491 kts 212°
2026-04-29 03:13 23.73746 113.68955 36000 ft 491 kts 212°
2026-04-29 03:13 23.50673 113.52976 36001 ft 491 kts 213°
2026-04-29 03:14 23.27711 113.36837 36001 ft 491 kts 213°
2026-04-29 03:14 23.06042 113.19047 36001 ft 490 kts 238°
2026-04-29 03:14 23.03062 113.05010 35998 ft 491 kts 274°
2026-04-29 03:15 23.04143 112.90214 36003 ft 492 kts 275°
2026-04-29 03:15 23.06206 112.60608 36001 ft 492 kts 274°
2026-04-29 03:16 23.10648 112.31316 36001 ft 492 kts 283°
2026-04-29 03:16 23.16755 112.02303 36000 ft 492 kts 282°
2026-04-29 03:17 23.22825 111.73279 36001 ft 492 kts 283°
2026-04-29 03:17 23.28944 111.44271 36002 ft 492 kts 282°
2026-04-29 03:18 23.34854 111.15330 36003 ft 492 kts 282°
2026-04-29 03:18 23.41009 110.86309 36001 ft 492 kts 283°
2026-04-29 03:19 23.47057 110.57223 36001 ft 492 kts 282°
2026-04-29 03:19 23.53007 110.28092 35999 ft 492 kts 282°
2026-04-29 03:20 23.59092 109.98996 36000 ft 492 kts 282°
2026-04-29 03:20 23.65080 109.69989 35998 ft 492 kts 282°
2026-04-29 03:21 23.71041 109.40834 35997 ft 492 kts 282°
2026-04-29 03:21 23.76500 109.11578 36001 ft 492 kts 275°
2026-04-29 03:22 23.78327 108.81749 35997 ft 492 kts 273°
2026-04-29 03:22 23.80072 108.51909 36001 ft 492 kts 273°
2026-04-29 03:23 23.81757 108.22101 36000 ft 492 kts 273°
2026-04-29 03:23 23.83308 107.92236 36002 ft 492 kts 273°
2026-04-29 03:24 23.85294 107.62610 35999 ft 492 kts 274°
2026-04-29 03:24 23.87416 107.32824 35999 ft 492 kts 274°
2026-04-29 03:25 23.89480 107.02970 36001 ft 492 kts 274°
2026-04-29 03:25 23.91482 106.73146 36001 ft 492 kts 274°
2026-04-29 03:26 23.95675 106.43613 35998 ft 492 kts 282°
2026-04-29 03:26 24.01592 106.14377 35997 ft 492 kts 282°
2026-04-29 03:27 24.07427 105.85111 36000 ft 492 kts 282°
2026-04-29 03:27 24.13754 105.56092 36001 ft 492 kts 285°
2026-04-29 03:28 24.20864 105.27096 36001 ft 492 kts 284°
2026-04-29 03:28 24.27424 104.97986 36001 ft 492 kts 283°
2026-04-29 03:29 24.33842 104.68778 36002 ft 492 kts 283°
2026-04-29 03:29 24.40213 104.39513 36002 ft 492 kts 283°
2026-04-29 03:30 24.46477 104.10437 36000 ft 492 kts 283°
2026-04-29 03:30 24.52722 103.81178 36001 ft 492 kts 283°
2026-04-29 03:30 24.55775 103.70785 36001 ft 492 kts 294°
2026-04-29 03:31 24.61738 103.57229 36002 ft 493 kts 296°
2026-04-29 03:31 24.67769 103.43687 35999 ft 493 kts 295°
2026-04-29 03:32 24.73758 103.30111 36001 ft 493 kts 295°
2026-04-29 03:32 24.79731 103.16535 36002 ft 493 kts 295°
2026-04-29 03:33 24.85656 103.03029 35999 ft 493 kts 295°
2026-04-29 03:33 24.91611 102.89411 36002 ft 493 kts 295°
2026-04-29 03:34 24.97615 102.75837 36002 ft 493 kts 296°
2026-04-29 03:34 25.03623 102.62253 35997 ft 493 kts 293°
2026-04-29 03:35 25.05507 102.55014 35995 ft 491 kts 276°
2026-04-29 03:35 25.05238 102.47531 36000 ft 490 kts 257°
2026-04-29 03:35 25.02826 102.40528 36001 ft 490 kts 243°
2026-04-29 03:35 24.99663 102.33855 36002 ft 491 kts 242°
2026-04-29 03:36 24.93206 102.20586 35996 ft 491 kts 242°
2026-04-29 03:36 24.86829 102.07270 35997 ft 491 kts 242°
2026-04-29 03:37 24.80448 101.93966 36002 ft 491 kts 242°
2026-04-29 03:37 24.74096 101.80768 36002 ft 491 kts 242°
2026-04-29 03:38 24.67687 101.67486 36003 ft 491 kts 242°
2026-04-29 03:38 24.61259 101.54207 36002 ft 491 kts 242°
2026-04-29 03:39 24.54743 101.41004 36001 ft 491 kts 241°
2026-04-29 03:39 24.48224 101.27832 35998 ft 491 kts 241°
2026-04-29 03:40 24.41693 101.14657 36001 ft 491 kts 241°
2026-04-29 03:40 24.35154 101.01501 36000 ft 491 kts 241°
2026-04-29 03:41 24.28604 100.88359 36002 ft 491 kts 241°
2026-04-29 03:41 24.22039 100.75223 36000 ft 491 kts 241°
2026-04-29 03:42 24.15463 100.62100 36003 ft 491 kts 241°
2026-04-29 03:42 24.08850 100.49014 35998 ft 491 kts 240°
2026-04-29 03:43 24.02155 100.35991 36001 ft 491 kts 240°
2026-04-29 03:43 23.95507 100.23064 36001 ft 491 kts 240°
2026-04-29 03:44 23.88796 100.10040 36002 ft 491 kts 240°
2026-04-29 03:44 23.82080 99.97043 35997 ft 491 kts 240°
2026-04-29 03:45 23.75355 99.84065 36001 ft 491 kts 240°
2026-04-29 03:45 23.68625 99.71107 36001 ft 491 kts 240°
2026-04-29 03:46 23.61893 99.58184 36002 ft 491 kts 240°
2026-04-29 03:46 23.55131 99.45236 35999 ft 491 kts 240°
2026-04-29 03:47 23.50640 99.33905 36001 ft 491 kts 251°
2026-04-29 03:47 23.46270 99.19769 36003 ft 491 kts 251°
2026-04-29 03:48 23.41880 99.05648 36000 ft 491 kts 251°
2026-04-29 03:48 23.37462 98.91553 36001 ft 491 kts 251°
2026-04-29 03:49 23.32830 98.77647 36002 ft 491 kts 249°
2026-04-29 03:49 23.28111 98.63690 35998 ft 491 kts 250°
2026-04-29 03:50 23.23410 98.49739 36000 ft 491 kts 250°
2026-04-29 03:50 23.18685 98.35766 35999 ft 491 kts 250°
2026-04-29 03:51 23.13982 98.21909 36001 ft 491 kts 250°
2026-04-29 03:51 23.09239 98.07978 36002 ft 491 kts 249°
2026-04-29 03:52 23.04484 97.94060 36002 ft 491 kts 249°
2026-04-29 03:52 22.99715 97.80143 36001 ft 491 kts 249°
2026-04-29 03:53 22.97916 97.72984 36001 ft 491 kts 261°
2026-04-29 03:53 22.97030 97.65727 36002 ft 491 kts 263°
2026-04-29 03:53 22.95543 97.50946 36002 ft 492 kts 263°
2026-04-29 03:54 22.94003 97.36187 36003 ft 492 kts 263°
2026-04-29 03:54 22.92444 97.21525 36001 ft 492 kts 263°
2026-04-29 03:55 22.90864 97.06774 35996 ft 492 kts 263°
2026-04-29 03:55 22.89270 96.92024 35997 ft 492 kts 263°
2026-04-29 03:56 22.87671 96.77346 35998 ft 492 kts 263°
2026-04-29 03:56 22.86051 96.62606 36000 ft 492 kts 263°
2026-04-29 03:57 22.84416 96.47857 35999 ft 492 kts 263°
2026-04-29 03:57 22.82779 96.33228 35996 ft 492 kts 263°
2026-04-29 03:58 22.81119 96.18508 36000 ft 492 kts 263°
2026-04-29 03:58 22.79445 96.03789 36003 ft 492 kts 263°
2026-04-29 03:59 22.77760 95.89081 36002 ft 492 kts 263°
2026-04-29 03:59 22.76057 95.74359 35999 ft 492 kts 263°
2026-04-29 04:00 22.74355 95.59749 36001 ft 492 kts 262°
2026-04-29 04:00 22.72627 95.45047 35999 ft 492 kts 262°
2026-04-29 04:01 22.70885 95.30339 35998 ft 492 kts 262°
2026-04-29 04:01 22.69132 95.15647 35997 ft 492 kts 262°
2026-04-29 04:02 22.67360 95.00926 36001 ft 492 kts 262°
2026-04-29 04:02 22.65591 94.86344 36000 ft 492 kts 262°
2026-04-29 04:03 22.63793 94.71620 36003 ft 492 kts 262°
2026-04-29 04:03 22.61988 94.56962 35997 ft 492 kts 262°
2026-04-29 04:04 22.60166 94.42291 36003 ft 491 kts 262°
2026-04-29 04:04 22.58341 94.27685 36003 ft 492 kts 262°
2026-04-29 04:05 22.56494 94.13023 36004 ft 492 kts 262°
2026-04-29 04:05 22.54628 93.98321 36004 ft 492 kts 262°
2026-04-29 04:06 22.52765 93.83751 36003 ft 492 kts 262°
2026-04-29 04:06 22.50878 93.69097 36002 ft 491 kts 262°
2026-04-29 04:07 22.48980 93.54465 36001 ft 491 kts 262°
2026-04-29 04:07 22.47064 93.39811 36003 ft 492 kts 262°
2026-04-29 04:08 22.45137 93.25157 36001 ft 492 kts 262°
2026-04-29 04:08 22.43205 93.10586 36001 ft 491 kts 262°
2026-04-29 04:09 22.41252 92.95949 35997 ft 491 kts 262°
2026-04-29 04:09 22.39286 92.81322 36001 ft 491 kts 261°
2026-04-29 04:10 22.38298 92.74006 36422 ft 490 kts 261°
2026-04-29 04:10 22.37318 92.66736 36969 ft 488 kts 261°
2026-04-29 04:10 22.36350 92.59562 37394 ft 488 kts 261°
2026-04-29 04:10 22.35369 92.52312 37792 ft 488 kts 261°
2026-04-29 04:11 22.34379 92.45024 38002 ft 492 kts 261°
2026-04-29 04:11 22.33380 92.37700 38000 ft 491 kts 261°
2026-04-29 04:11 22.31378 92.23083 38000 ft 491 kts 261°
2026-04-29 04:12 22.29370 92.08546 38000 ft 491 kts 261°
2026-04-29 04:12 22.27337 91.93922 38000 ft 491 kts 261°
2026-04-29 04:13 22.26225 91.79247 38002 ft 491 kts 275°
2026-04-29 04:13 22.27838 91.64647 38000 ft 492 kts 277°
2026-04-29 04:14 22.29563 91.49983 38000 ft 492 kts 277°
2026-04-29 04:14 22.31242 91.35305 38000 ft 492 kts 277°
2026-04-29 04:15 22.33071 91.20652 38000 ft 492 kts 277°
2026-04-29 04:15 22.34884 91.05983 38000 ft 492 kts 277°
2026-04-29 04:16 22.36661 90.91420 38000 ft 492 kts 277°
2026-04-29 04:16 22.38438 90.76750 38000 ft 492 kts 277°
2026-04-29 04:17 22.40202 90.62070 38001 ft 492 kts 277°
2026-04-29 04:17 22.41953 90.47392 38000 ft 492 kts 277°
2026-04-29 04:18 22.43690 90.32705 37999 ft 492 kts 277°
2026-04-29 04:18 22.45405 90.18099 38000 ft 492 kts 277°
2026-04-29 04:19 22.47120 90.03374 38000 ft 492 kts 277°
2026-04-29 04:19 22.48806 89.88779 38000 ft 492 kts 277°
2026-04-29 04:20 22.50492 89.74070 37999 ft 492 kts 277°
2026-04-29 04:20 22.52163 89.59373 38000 ft 492 kts 277°
2026-04-29 04:21 22.53813 89.44734 38000 ft 492 kts 276°
2026-04-29 04:21 22.55458 89.30018 38000 ft 492 kts 276°
2026-04-29 04:22 22.57089 89.15302 38000 ft 492 kts 276°
2026-04-29 04:22 22.58699 89.00657 38001 ft 492 kts 276°
2026-04-29 04:23 22.60597 88.85980 38000 ft 492 kts 281°
2026-04-29 04:23 22.63190 88.71421 38000 ft 492 kts 280°
2026-04-29 04:24 22.65623 88.56816 38000 ft 492 kts 279°
2026-04-29 04:24 22.67743 88.42255 38000 ft 492 kts 275°
2026-04-29 04:25 22.68773 88.27465 38000 ft 492 kts 274°
2026-04-29 04:25 22.69726 88.12752 38000 ft 492 kts 274°
2026-04-29 04:26 22.70690 87.97928 38000 ft 492 kts 274°
2026-04-29 04:26 22.71638 87.83144 38000 ft 492 kts 274°
2026-04-29 04:27 22.72573 87.68342 38000 ft 492 kts 274°
2026-04-29 04:27 22.73494 87.53552 38000 ft 492 kts 274°
2026-04-29 04:28 22.74395 87.38844 38000 ft 492 kts 274°
2026-04-29 04:28 22.75290 87.24037 38000 ft 492 kts 273°
2026-04-29 04:29 22.76169 87.09238 38000 ft 492 kts 273°
2026-04-29 04:29 22.77031 86.94522 38000 ft 492 kts 273°
2026-04-29 04:30 22.77884 86.79705 38000 ft 492 kts 273°
2026-04-29 04:31 22.79135 86.57546 38000 ft 492 kts 273°
2026-04-29 04:31 22.79953 86.42752 38000 ft 492 kts 273°
2026-04-29 04:32 22.80759 86.27924 38000 ft 492 kts 273°
2026-04-29 04:32 22.81595 86.13096 38000 ft 492 kts 274°
2026-04-29 04:33 22.82873 85.98417 38000 ft 492 kts 275°
2026-04-29 04:33 22.84103 85.83608 38000 ft 492 kts 275°
2026-04-29 04:34 22.85092 85.71327 38001 ft 492 kts 275°
2026-04-29 04:34 22.86272 85.56544 38001 ft 492 kts 275°
2026-04-29 04:35 22.87440 85.41746 38000 ft 492 kts 275°
2026-04-29 04:35 22.88588 85.27031 38000 ft 492 kts 274°
2026-04-29 04:36 22.89729 85.12235 38291 ft 491 kts 274°
2026-04-29 04:36 22.90301 85.04854 38743 ft 489 kts 274°
2026-04-29 04:36 22.90869 84.97497 39088 ft 490 kts 274°
2026-04-29 04:36 22.91434 84.90133 39413 ft 490 kts 274°
2026-04-29 04:37 22.91996 84.82751 39724 ft 490 kts 274°
2026-04-29 04:37 22.92546 84.75487 39987 ft 490 kts 274°
2026-04-29 04:37 22.93104 84.68060 40000 ft 492 kts 274°
2026-04-29 04:38 22.94207 84.53262 40000 ft 492 kts 274°
2026-04-29 04:38 22.95297 84.38437 40001 ft 492 kts 274°
2026-04-29 04:39 22.96372 84.23638 40000 ft 492 kts 274°
2026-04-29 04:39 22.97410 84.08903 40000 ft 492 kts 273°
2026-04-29 04:40 22.98180 83.94040 40001 ft 492 kts 273°
2026-04-29 04:40 22.98958 83.79205 40000 ft 492 kts 273°
2026-04-29 04:41 22.99729 83.64522 40001 ft 492 kts 273°
2026-04-29 04:41 23.00492 83.49697 40000 ft 492 kts 273°
2026-04-29 04:42 23.01241 83.34874 40000 ft 492 kts 273°
2026-04-29 04:42 23.01974 83.20098 40000 ft 492 kts 272°
2026-04-29 04:43 23.02698 83.05219 40003 ft 492 kts 272°
2026-04-29 04:43 23.03405 82.90390 40000 ft 492 kts 272°
2026-04-29 04:44 23.04099 82.75558 40000 ft 492 kts 272°
2026-04-29 04:44 23.04779 82.60722 40000 ft 492 kts 272°
2026-04-29 04:45 23.05446 82.45885 40000 ft 492 kts 272°
2026-04-29 04:45 23.06098 82.31044 40000 ft 492 kts 272°
2026-04-29 04:46 23.06736 82.16213 40000 ft 492 kts 272°
2026-04-29 04:46 23.07633 82.01383 40000 ft 492 kts 274°
2026-04-29 04:47 23.08569 81.86561 40000 ft 492 kts 274°
2026-04-29 04:47 23.09459 81.71732 40000 ft 492 kts 273°
2026-04-29 04:48 23.10335 81.56911 40000 ft 492 kts 273°
2026-04-29 04:48 23.11200 81.42078 40000 ft 492 kts 273°
2026-04-29 04:49 23.12050 81.27245 40000 ft 492 kts 273°
2026-04-29 04:49 23.12886 81.12414 40001 ft 492 kts 273°
2026-04-29 04:50 23.13703 80.97679 40000 ft 492 kts 273°
2026-04-29 04:50 23.14511 80.82845 40000 ft 492 kts 273°
2026-04-29 04:51 23.15315 80.68006 40000 ft 492 kts 273°
2026-04-29 04:51 23.16124 80.53166 40000 ft 492 kts 273°
2026-04-29 04:52 23.16915 80.38319 40000 ft 492 kts 273°
2026-04-29 04:52 23.17692 80.23488 40000 ft 492 kts 273°
2026-04-29 04:53 23.18455 80.08635 40000 ft 492 kts 273°
2026-04-29 04:53 23.19137 79.93788 40000 ft 492 kts 272°
2026-04-29 04:54 23.19767 79.78936 40000 ft 492 kts 272°
2026-04-29 04:54 23.20394 79.64082 40000 ft 492 kts 272°
2026-04-29 04:55 23.20915 79.49230 40000 ft 492 kts 271°
2026-04-29 04:55 23.21114 79.34368 40000 ft 492 kts 271°
2026-04-29 04:56 23.21361 79.19503 40000 ft 492 kts 271°
2026-04-29 04:56 23.21604 79.04633 40000 ft 492 kts 271°
2026-04-29 04:57 23.21832 78.89769 40002 ft 492 kts 270°
2026-04-29 04:57 23.22045 78.74903 40000 ft 492 kts 270°
2026-04-29 04:58 23.22675 78.60048 40000 ft 492 kts 273°
2026-04-29 04:58 23.23448 78.45200 40000 ft 492 kts 272°
2026-04-29 04:59 23.24141 78.30346 40000 ft 492 kts 272°
2026-04-29 04:59 23.24823 78.15488 40000 ft 492 kts 272°
2026-04-29 05:00 23.25490 78.00633 40000 ft 492 kts 272°
2026-04-29 05:00 23.26145 77.85771 40000 ft 492 kts 272°
2026-04-29 05:01 23.26785 77.70919 40003 ft 492 kts 272°
2026-04-29 05:01 23.27411 77.56058 40000 ft 492 kts 272°
2026-04-29 05:02 23.28023 77.41196 40000 ft 492 kts 272°
2026-04-29 05:02 23.27834 77.26342 40002 ft 492 kts 265°
2026-04-29 05:03 23.26769 77.11518 40002 ft 492 kts 265°
2026-04-29 05:03 23.25694 76.96698 40000 ft 492 kts 265°
2026-04-29 05:04 23.24616 76.81876 40000 ft 492 kts 265°
2026-04-29 05:04 23.23523 76.67062 40000 ft 492 kts 265°
2026-04-29 05:05 23.22415 76.52241 40000 ft 492 kts 265°
2026-04-29 05:05 23.21294 76.37429 40000 ft 492 kts 265°
2026-04-29 05:06 23.20160 76.22624 40001 ft 492 kts 265°
2026-04-29 05:06 23.19011 76.07817 40000 ft 492 kts 265°
2026-04-29 05:07 23.18104 75.92991 40000 ft 492 kts 269°
2026-04-29 05:07 23.18114 75.78130 40000 ft 492 kts 269°
2026-04-29 05:08 23.17946 75.63272 40000 ft 492 kts 269°
2026-04-29 05:08 23.17731 75.48411 40000 ft 492 kts 269°
2026-04-29 05:09 23.17511 75.33648 40000 ft 492 kts 269°
2026-04-29 05:09 23.17277 75.18795 40000 ft 492 kts 269°
2026-04-29 05:10 23.17027 75.03933 40000 ft 492 kts 269°
2026-04-29 05:10 23.16764 74.89082 40000 ft 492 kts 269°
2026-04-29 05:11 23.16487 74.74218 40000 ft 492 kts 268°
2026-04-29 05:11 23.16196 74.59363 40000 ft 492 kts 268°
2026-04-29 05:12 23.15891 74.44511 40000 ft 492 kts 268°
2026-04-29 05:12 23.15540 74.29651 40000 ft 492 kts 267°
2026-04-29 05:13 23.14788 74.14822 40000 ft 492 kts 266°
2026-04-29 05:13 23.14061 73.99985 40000 ft 492 kts 266°
2026-04-29 05:14 23.13344 73.85156 40000 ft 492 kts 266°
2026-04-29 05:14 23.12585 73.69840 39999 ft 492 kts 266°
2026-04-29 05:15 23.11073 73.40182 39999 ft 492 kts 266°
2026-04-29 05:15 23.09506 73.10530 40001 ft 492 kts 266°
2026-04-29 05:16 23.07884 72.80882 39999 ft 492 kts 266°
2026-04-29 05:16 23.05285 72.51359 40000 ft 491 kts 261°
2026-04-29 05:17 23.01130 72.22014 40002 ft 491 kts 261°
2026-04-29 05:17 22.96945 71.92694 39999 ft 491 kts 261°
2026-04-29 05:18 22.92707 71.63409 39999 ft 491 kts 261°
2026-04-29 05:18 22.89142 71.39063 39999 ft 491 kts 261°
2026-04-29 05:19 22.84807 71.09817 39999 ft 491 kts 261°
2026-04-29 05:19 22.81071 70.80499 40002 ft 491 kts 272°
2026-04-29 05:20 22.82895 70.50907 40001 ft 492 kts 274°
2026-04-29 05:20 22.84711 70.21335 39999 ft 492 kts 273°
2026-04-29 05:21 22.86476 69.91742 40002 ft 492 kts 273°
2026-04-29 05:21 22.88228 69.62145 40002 ft 492 kts 274°
2026-04-29 05:22 22.90131 69.32527 39999 ft 492 kts 274°
2026-04-29 05:22 22.91958 69.02917 40001 ft 492 kts 274°
2026-04-29 05:23 22.93729 68.73307 40001 ft 492 kts 273°
2026-04-29 05:23 22.95447 68.43674 39999 ft 492 kts 273°
2026-04-29 05:24 22.95806 68.14016 40000 ft 492 kts 269°
2026-04-29 05:24 22.95780 67.84357 40000 ft 492 kts 270°
2026-04-29 05:25 22.95840 67.54676 40002 ft 492 kts 270°
2026-04-29 05:25 22.95836 67.24994 40001 ft 492 kts 270°
2026-04-29 05:26 22.95778 66.95319 39999 ft 492 kts 270°
2026-04-29 05:26 22.95957 66.65659 40000 ft 492 kts 270°
2026-04-29 05:27 22.96068 66.36171 39999 ft 492 kts 270°
2026-04-29 05:27 22.96136 65.91658 39999 ft 492 kts 270°
2026-04-29 05:28 22.96111 65.61996 40000 ft 492 kts 270°
2026-04-29 05:28 22.96031 65.32108 40000 ft 492 kts 269°
2026-04-29 05:29 22.95896 65.02450 39999 ft 492 kts 269°
2026-04-29 05:29 22.96871 64.72836 40002 ft 492 kts 276°
2026-04-29 05:30 23.00018 64.43323 39999 ft 492 kts 276°
2026-04-29 05:30 23.03073 64.13825 40002 ft 492 kts 276°
2026-04-29 05:31 23.06079 63.84290 40002 ft 492 kts 276°
2026-04-29 05:31 23.09132 63.54965 39999 ft 492 kts 276°
2026-04-29 05:32 23.12163 63.25217 39999 ft 492 kts 276°
2026-04-29 05:32 23.15099 62.95866 39999 ft 492 kts 276°
2026-04-29 05:33 23.18000 62.66304 39999 ft 492 kts 276°
2026-04-29 05:33 23.20846 62.36720 39999 ft 492 kts 276°
2026-04-29 05:34 23.23636 62.07134 40001 ft 492 kts 275°
2026-04-29 05:34 23.26371 61.77533 39999 ft 492 kts 275°
2026-04-29 05:35 23.29049 61.47934 39999 ft 492 kts 275°
2026-04-29 05:35 23.31672 61.18318 39999 ft 492 kts 275°
2026-04-29 05:36 23.35378 60.88812 40003 ft 492 kts 277°
2026-04-29 05:36 23.40198 60.59586 40001 ft 492 kts 290°
2026-04-29 05:37 23.50340 60.31862 40000 ft 493 kts 291°
2026-04-29 05:37 23.60412 60.04104 39999 ft 492 kts 291°
2026-04-29 05:38 23.70440 59.76293 40001 ft 492 kts 291°
2026-04-29 05:38 23.80420 59.48436 40003 ft 492 kts 291°
2026-04-29 05:39 23.90414 59.20356 39999 ft 492 kts 291°
2026-04-29 05:39 24.01526 58.93206 40001 ft 493 kts 295°
2026-04-29 05:40 24.13109 58.66034 39999 ft 493 kts 295°
2026-04-29 05:40 24.24644 58.38800 40000 ft 493 kts 294°
2026-04-29 05:41 24.36129 58.11522 40000 ft 493 kts 294°
2026-04-29 05:41 24.47561 57.84204 40000 ft 493 kts 294°
2026-04-29 05:42 24.58294 57.56523 40001 ft 493 kts 292°
2026-04-29 05:42 24.68794 57.28714 40000 ft 493 kts 292°
2026-04-29 05:43 24.79240 57.00845 40000 ft 493 kts 292°
2026-04-29 05:43 24.89639 56.72933 40000 ft 493 kts 292°
2026-04-29 05:44 24.99567 56.44810 40000 ft 492 kts 287°
2026-04-29 05:44 25.08069 56.16112 40001 ft 492 kts 288°
2026-04-29 05:45 25.11000 56.01400 40002 ft 492 kts 277°
2026-04-29 05:45 25.12805 55.86440 40001 ft 492 kts 277°
2026-04-29 05:45 25.18069 55.56830 40001 ft 492 kts 282°
2026-04-29 05:46 25.20637 55.42005 39999 ft 491 kts 271°
2026-04-29 05:46 25.18947 55.27059 40002 ft 491 kts 260°
2026-04-29 05:46 25.15153 54.97185 39997 ft 492 kts 268°
2026-04-29 05:47 25.16723 54.82229 39999 ft 492 kts 279°
2026-04-29 05:47 25.19010 54.67333 40001 ft 492 kts 279°
2026-04-29 05:47 25.24936 54.37858 40001 ft 492 kts 285°
2026-04-29 05:48 25.32152 54.08672 40000 ft 492 kts 283°
2026-04-29 05:48 25.38268 53.79171 39999 ft 492 kts 283°
2026-04-29 05:49 25.44441 53.49687 40001 ft 492 kts 282°
2026-04-29 05:49 25.50547 53.20154 40002 ft 492 kts 282°
2026-04-29 05:50 25.56895 52.90692 40000 ft 492 kts 292°
2026-04-29 05:50 25.69713 52.63854 40000 ft 493 kts 298°
2026-04-29 05:51 25.82506 52.36971 40000 ft 493 kts 296°
2026-04-29 05:51 25.89612 52.24031 40001 ft 493 kts 310°
2026-04-29 05:51 25.95447 52.16863 39998 ft 493 kts 313°
2026-04-29 05:52 25.97769 52.14089 39530 ft 486 kts 313°
2026-04-29 05:52 26.00053 52.11360 38383 ft 481 kts 312°
2026-04-29 05:52 26.02334 52.08625 36864 ft 484 kts 312°
2026-04-29 05:52 26.04625 52.05865 35299 ft 487 kts 312°
2026-04-29 05:53 26.06924 52.03093 33651 ft 488 kts 312°
2026-04-29 05:53 26.09197 52.00344 31914 ft 490 kts 312°
2026-04-29 05:53 26.11503 51.97548 30111 ft 491 kts 312°
2026-04-29 05:53 26.13806 51.94751 28388 ft 488 kts 312°
2026-04-29 05:54 26.16090 51.91977 26762 ft 482 kts 312°
2026-04-29 05:54 26.18336 51.89248 25209 ft 474 kts 312°
2026-04-29 05:54 26.20542 51.86567 23720 ft 464 kts 312°
2026-04-29 05:54 26.22698 51.83945 22209 ft 454 kts 312°
2026-04-29 05:55 26.24688 51.81269 20693 ft 444 kts 303°
2026-04-29 05:55 26.26286 51.78372 19236 ft 435 kts 299°
2026-04-29 05:55 26.27732 51.75385 18353 ft 438 kts 297°
2026-04-29 05:55 26.29078 51.72400 18080 ft 423 kts 296°
2026-04-29 05:56 26.30359 51.69478 17497 ft 417 kts 295°
2026-04-29 05:56 26.31616 51.66585 16895 ft 412 kts 295°
2026-04-29 05:56 26.32864 51.63730 16298 ft 407 kts 296°
2026-04-29 05:56 26.34105 51.60911 15719 ft 402 kts 296°
2026-04-29 05:57 26.35332 51.58134 15129 ft 397 kts 296°
2026-04-29 05:57 26.36549 51.55391 14567 ft 392 kts 296°
2026-04-29 05:57 26.37686 51.52650 13959 ft 388 kts 292°
2026-04-29 05:57 26.38670 51.49875 13422 ft 382 kts 290°
2026-04-29 05:58 26.39591 51.47117 12875 ft 377 kts 289°
2026-04-29 05:58 26.40470 51.44382 12320 ft 372 kts 289°
2026-04-29 05:58 26.41324 51.41679 11772 ft 367 kts 289°
2026-04-29 05:58 26.42164 51.39010 11230 ft 362 kts 289°
2026-04-29 05:59 26.42995 51.36375 10765 ft 356 kts 289°
2026-04-29 05:59 26.43806 51.33830 10619 ft 340 kts 289°
2026-04-29 05:59 26.44581 51.31399 10488 ft 325 kts 289°
2026-04-29 05:59 26.45314 51.29068 10354 ft 312 kts 288°
2026-04-29 06:00 26.45678 51.26749 10216 ft 298 kts 268°
2026-04-29 06:00 26.45276 51.24546 10097 ft 285 kts 249°
2026-04-29 06:00 26.44540 51.22492 9823 ft 287 kts 246°
2026-04-29 06:00 26.43756 51.20439 9494 ft 288 kts 246°
2026-04-29 06:01 26.42977 51.18388 9170 ft 286 kts 247°
2026-04-29 06:01 26.42208 51.16344 8832 ft 285 kts 247°
2026-04-29 06:01 26.41447 51.14308 8518 ft 284 kts 247°
2026-04-29 06:01 26.40692 51.12283 8188 ft 282 kts 247°
2026-04-29 06:02 26.39941 51.10267 7877 ft 281 kts 247°
2026-04-29 06:02 26.39194 51.08260 7556 ft 280 kts 247°
2026-04-29 06:02 26.38701 51.06936 7346 ft 279 kts 247°
2026-04-29 06:02 26.37710 51.04273 6929 ft 277 kts 247°
2026-04-29 06:03 26.37222 51.02963 6704 ft 276 kts 247°
2026-04-29 06:03 26.36251 51.00354 6284 ft 274 kts 247°
2026-04-29 06:03 26.35520 50.98395 5970 ft 273 kts 247°
2026-04-29 06:03 26.34793 50.96444 5643 ft 272 kts 247°
2026-04-29 06:04 26.34296 50.95135 5411 ft 271 kts 246°
2026-04-29 06:04 26.33284 50.93385 5111 ft 270 kts 225°
2026-04-29 06:04 26.31799 50.92193 4966 ft 258 kts 210°
2026-04-29 06:04 26.29774 50.90944 4786 ft 244 kts 208°
2026-04-29 06:05 26.28779 50.90339 4689 ft 238 kts 209°
2026-04-29 06:05 26.27376 50.89478 4551 ft 230 kts 209°
2026-04-29 06:05 26.26106 50.88454 4350 ft 224 kts 225°
2026-04-29 06:05 26.25096 50.87163 4150 ft 219 kts 231°
2026-04-29 06:06 26.24157 50.85837 3892 ft 217 kts 232°
2026-04-29 06:06 26.23231 50.84522 3635 ft 214 kts 232°
2026-04-29 06:06 26.22315 50.83228 3410 ft 211 kts 231°
2026-04-29 06:06 26.21407 50.81952 3181 ft 209 kts 231°
2026-04-29 06:07 26.20521 50.80711 3049 ft 201 kts 231°
2026-04-29 06:07 26.19679 50.79494 2942 ft 197 kts 236°
2026-04-29 06:07 26.19290 50.78092 2815 ft 186 kts 274°
2026-04-29 06:07 26.19550 50.76693 2575 ft 185 kts 285°
2026-04-29 06:08 26.20111 50.75401 2277 ft 188 kts 307°
2026-04-29 06:08 26.20889 50.74242 1997 ft 187 kts 301°
2026-04-29 06:08 26.21517 50.73021 1744 ft 176 kts 301°
2026-04-29 06:08 26.22162 50.71911 1517 ft 165 kts 302°
2026-04-29 06:09 26.22762 50.70877 1298 ft 154 kts 301°
2026-04-29 06:09 26.23315 50.69907 1094 ft 143 kts 301°
2026-04-29 06:09 26.23839 50.68993 924 ft 139 kts 301°
2026-04-29 06:09 26.24359 50.68090 737 ft 139 kts 301°
2026-04-29 06:10 26.24878 50.67186 556 ft 138 kts 301°
2026-04-29 06:10 26.25397 50.66285 372 ft 138 kts 301°
2026-04-29 06:10 26.25915 50.65385 200 ft 138 kts 301°
2026-04-29 06:10 26.26430 50.64489 32 ft 135 kts 301°
2026-04-29 06:11 26.26878 50.63708 22 ft 99 kts 302°
2026-04-29 06:11 26.27176 50.63195 22 ft 65 kts 303°
2026-04-29 06:11 26.27411 50.62794 24 ft 52 kts 303°
2026-04-29 06:11 26.27563 50.62533 23 ft 38 kts 303°
2026-04-29 06:12 26.27705 50.62287 25 ft 37 kts 302°
2026-04-29 06:12 26.27760 50.62050 26 ft 24 kts 257°
2026-04-29 06:12 26.27697 50.61995 25 ft 8 kts 157°
2026-04-29 06:12 26.27653 50.62039 23 ft 9 kts 131°
2026-04-29 06:13 26.27616 50.62102 23 ft 11 kts 122°
2026-04-29 06:13 26.27569 50.62183 24 ft 14 kts 123°
2026-04-29 06:13 26.27512 50.62283 24 ft 17 kts 122°
2026-04-29 06:13 26.27447 50.62399 24 ft 19 kts 121°
2026-04-29 06:14 26.27375 50.62528 28 ft 21 kts 123°
2026-04-29 06:14 26.27292 50.62667 26 ft 22 kts 124°
2026-04-29 06:14 26.27203 50.62817 28 ft 24 kts 122°
2026-04-29 06:14 26.27130 50.62909 28 ft 7 kts 168°
2026-04-29 06:15 26.27100 50.62897 28 ft 5 kts 200°
2026-04-29 06:15 26.27053 50.62886 26 ft 8 kts 178°
2026-04-29 06:15 26.27001 50.62927 24 ft 10 kts 125°
2026-04-29 06:15 26.26956 50.63004 28 ft 13 kts 123°
2026-04-29 06:16 26.26898 50.63100 23 ft 16 kts 123°
2026-04-29 06:16 26.26830 50.63214 24 ft 19 kts 123°
2026-04-29 06:16 26.26773 50.63287 24 ft 5 kts 174°
2026-04-29 06:16 26.26739 50.63279 23 ft 6 kts 184°
2026-04-29 06:17 26.26703 50.63264 25 ft 5 kts 205°
2026-04-29 06:17 26.26701 50.63263 25 ft 0 kts 205°